Temperature
18 18 18 18 18 18 18 18 18 18 18 18 18 18 18 18 18 18 18 18 18 18 18 18 18 18 18 18 18 18 18 18 18 18 18 18 18 18 18 18 18 18 18
18 18 18 18 18 18 18 18 18 18 18 18 18 18 18 18 18 18 18 18 18 18 18 18 18 18 18 18 18 18 18 18 18 18 18 18 18 18 18 18 18 18 18
18 18 18 18 18 18 18 18 18 18 18 18 18 18 18 18 18 18 18 18 18 18 18 18 18 18 18 18 18 18 18 18 18 18 18 18 18 18 18 18 18 18 18
18 18 18 18 18 18 18 18 18 18 18 18 18 18 18 18 18 18 18 18 18 18 18 18 18 18 18 18 18 18 18 18 18 18 18 18 18 18 18 18 18 18 18
18 18 18 18 18 18 18 18 18 18 18 18 18 18 18 18 18 18 18 18 18 18 18 18 18 18 18 18 18 18 18 18 18 18 18 17 17 17 18 18 18 18 17
18 18 18 18 18 18 18 18 18 18 18 18 18 18 18 17 17 18 18 18 18 17 17 17 17 18 18 18 18 18 17 17 17 17 17 17 17 17 17 17 17 17 17
18 18 18 18 18 18 17 17 18 17 17 18 18 18 17 17 18 18 18 17 17 17 17 17 17 17 17 17 17 17 17 17 17 17 17 17 17 17 17 17 17 17 17
18 18 18 18 18 17 17 17 17 17 17 17 17 17 17 17 17 17 17 17 17 17 17 17 17 17 17 17 17 17 17 17 17 17 17 17 17 17 17 17 17 17 17
18 18 18 18 17 17 17 17 17 17 17 17 17 17 17 17 17 17 17 17 17 17 17 17 17 17 17 17 17 17 17 17 17 17 17 17 17 17 17 17 17 17 17
18 18 18 18 17 17 17 17 17 17 17 17 17 17 17 17 17 17 17 17 17 17 17 17 17 17 17 17 17 17 17 17 16 16 16 16 16 16 17 16 17 17 17
18 18 18 17 17 17 17 17 17 17 17 17 17 17 17 17 17 17 17 16 17 17 17 17 17 17 16 16 16 16 16 16 16 16 16 16 16 16 16 16 16 16 16
18 18 18 18 17 17 17 17 17 17 17 17 17 17 17 17 17 16 16 16 16 16 16 16 16 16 16 16 16 16 16 16 16 16 16 16 16 16 16 16 16 16 16
18 18 18 18 18 17 17 17 17 17 17 16 16 17 16 16 16 16 16 16 16 16 16 16 16 16 16 16 16 16 16 16 16 16 16 16 16 16 16 16 16 16 16
18 18 18 18 18 17 17 17 17 17 16 16 16 16 16 16 16 16 16 16 16 16 16 16 16 16 16 16 16 16 16 16 16 16 16 16 16 16 16 16 16 16 16
19 18 18 18 18 17 17 17 17 17 16 16 16 16 16 16 16 16 16 16 16 16 16 16 16 16 16 16 16 16 16 16 16 16 16 15 16 16 16 16 16 16 16
19 18 18 18 18 17 17 17 17 17 16 16 16 16 16 16 16 16 16 16 16 16 16 16 16 16 16 16 16 16 16 16 16 16 15 15 15 15 15 15 16 16 16
19 19 18 18 18 17 17 17 17 17 17 16 16 16 16 16 16 16 16 16 16 16 16 16 16 16 16 16 15 15 15 15 15 15 15 15 15 15 15 15 15 15 15
19 19 18 18 18 17 17 17 17 17 16 16 16 16 16 16 16 16 16 15 15 15 15 15 15 15 15 15 15 15 15 15 15 15 15 15 15 15 15 15 15 15 15
19 19 18 18 18 17 17 17 17 17 16 16 16 16 16 16 16 16 15 15 15 15 15 15 15 15 15 15 15 15 15 15 15 15 15 15 15 15 15 15 15 15 14
19 19 18 18 18 17 17 17 17 17 16 16 16 16 16 16 16 16 15 15 15 15 15 15 15 15 15 15 15 15 15 15 15 15 15 15 15 15 15 15 15 15 14
19 19 18 18 18 17 17 17 17 16 16 16 16 16 16 16 15 15 15 15 15 15 15 15 15 15 15 15 15 14 14 14 14 14 14 14 14 14 14 14 14 14 14
19 19 18 18 18 18 17 17 17 16 16 16 16 16 16 15 15 15 15 15 15 15 15 14 14 14 14 14 14 14 14 14 14 14 14 14 14 14 14 14 14 14 14
19 19 18 18 18 18 17 17 17 16 16 16 16 16 16 15 15 15 15 15 15 15 14 14 14 14 14 14 14 14 14 14 14 14 14 14 14 14 14 14 14 14 14
19 18 18 18 18 18 17 17 17 17 16 16 16 16 16 15 15 15 15 15 15 15 14 14 14 14 14 14 14 14 14 14 14 13 13 13 13 13 13 14 14 14 14
18 18 18 18 18 17 17 17 17 17 17 16 16 16 15 15 15 15 15 15 15 15 14 14 14 14 14 14 14 14 14 14 14 13 13 13 13 13 13 13 13 13 13
18 18 18 18 18 17 17 17 17 17 16 16 16 16 16 15 15 15 15 15 15 14 14 14 14 14 14 14 14 14 14 14 14 13 13 13 13 13 13 13 13 13 13
Wind_Speed
1 1 6 7 8 8 9 10 10 11 11 12 12 12 13 13 14 14 14 14 15 15 14 14 15 15 15 15 14 14 14 14 14 13 13 12 12 12 13 12 11 10 12
5 4 7 7 8 9 10 10 10 11 11 11 12 12 13 13 13 13 13 13 14 14 14 14 14 14 14 14 14 14 14 13 13 13 13 11 12 12 12 11 11 9 11
6 6 7 8 8 9 10 10 10 11 11 12 12 12 13 13 12 12 13 13 13 13 13 13 13 13 13 13 13 13 13 13 13 12 11 9 10 12 12 11 11 11 11
8 7 7 9 9 9 10 10 11 11 11 12 12 12 12 12 12 12 12 12 12 12 12 13 13 12 13 13 12 12 12 13 12 12 9 8 9 12 12 11 10 10 11
7 7 8 9 9 9 9 10 10 10 11 11 11 12 12 12 12 12 12 12 11 12 12 12 12 12 12 12 12 12 12 13 13 11 9 9 8 11 12 11 11 10 10
6 7 8 9 9 9 9 10 10 10 10 11 11 12 12 12 12 12 12 12 11 11 11 11 11 11 12 12 12 12 12 12 11 10 9 8 8 11 11 11 10 10 10
6 6 8 9 9 8 9 9 10 10 10 11 11 11 11 11 11 11 11 11 11 11 10 10 10 11 11 11 11 12 12 11 10 9 8 8 9 11 11 10 10 10 9
7 6 8 9 9 8 8 8 9 10 10 11 11 11 11 11 11 11 11 11 11 10 10 9 9 10 10 10 11 11 11 10 9 8 7 7 10 11 11 10 10 9 9
7 6 5 7 7 7 6 8 9 10 10 10 10 10 10 10 10 10 10 10 10 10 9 9 9 9 10 10 10 11 11 10 8 6 7 7 10 10 11 10 10 10 9
6 5 5 5 5 5 6 9 10 10 10 9 9 9 9 9 9 9 8 8 8 9 9 9 9 9 9 10 9 10 9 9 8 7 6 7 10 10 10 10 10 10 10
6 4 4 4 4 5 6 7 8 8 8 8 8 8 8 6 6 6 7 7 7 8 8 8 8 8 8 8 9 9 8 8 8 7 6 8 10 10 10 10 10 11 10
6 5 4 4 4 4 5 5 5 5 5 6 6 6 6 5 5 5 6 6 7 8 8 8 8 8 7 6 7 8 7 8 7 6 7 9 10 10 10 10 10 10 10
7 7 6 5 5 4 3 5 4 4 4 5 5 6 5 5 4 4 4 4 5 6 6 7 7 6 6 6 6 6 7 7 6 6 7 9 10 10 10 10 10 10 10
7 7 6 6 5 4 4 4 4 3 3 3 4 5 5 3 3 3 2 3 4 4 5 5 5 6 6 6 6 6 6 6 5 5 7 9 10 10 10 10 10 10 10
7 7 7 7 6 4 4 3 4 3 3 4 5 5 6 4 3 2 2 3 3 4 4 4 4 5 5 5 6 6 5 5 6 6 6 9 9 9 9 10 10 9 9
7 7 6 7 6 6 4 3 3 4 4 5 5 5 6 6 4 3 2 2 3 4 5 5 4 4 4 4 5 5 5 5 5 6 6 7 8 8 9 9 9 9 9
8 7 7 8 7 6 5 4 4 4 5 4 4 5 6 7 6 4 3 2 2 4 5 5 5 4 4 4 4 4 4 5 5 5 5 5 6 7 7 8 8 8 8
7 7 7 8 7 6 5 4 4 4 4 4 4 5 6 7 7 5 3 2 3 5 4 3 3 4 3 3 3 3 3 3 3 4 5 5 5 5 6 7 7 7 7
8 8 7 7 8 6 5 4 4 4 4 4 5 5 5 6 7 6 3 3 4 4 3 3 3 3 3 2 2 3 2 2 2 3 3 4 4 5 5 5 5 6 6
6 6 7 7 7 6 5 4 3 3 2 3 3 4 5 5 6 6 4 3 4 3 3 3 3 3 2 2 3 3 3 2 2 2 2 3 4 4 5 5 5 4 5
6 6 5 6 6 6 4 4 3 2 1 1 1 3 5 5 6 5 4 3 3 3 3 3 3 3 2 2 4 3 4 4 3 2 2 2 2 3 4 4 5 5 4
7 6 6 6 6 6 5 4 3 3 2 2 1 1 3 4 5 6 5 3 3 3 3 3 3 3 1 2 3 3 2 3 3 3 2 2 2 2 3 4 5 5 4
6 6 7 6 6 5 5 3 3 3 3 1 0 1 1 3 4 5 5 4 4 3 3 3 3 4 2 1 2 3 3 2 1 3 2 2 2 2 2 3 4 4 4
7 7 7 7 6 5 5 5 5 4 3 4 3 2 2 2 4 4 4 4 4 3 3 3 3 3 3 2 0 1 2 4 2 0 2 2 2 1 1 1 2 2 3
7 7 6 6 6 5 5 6 6 4 4 2 2 2 2 2 2 3 4 4 4 4 4 3 3 3 3 3 2 2 2 1 2 3 1 2 2 2 0 1 2 2 2
4 5 5 6 5 5 5 5 5 5 4 3 3 3 3 2 2 2 3 3 4 4 4 4 3 4 3 3 2 3 3 2 2 2 2 2 1 2 1 1 1 2 2
Wind_Direction
176 139 99 91 89 87 89 90 90 88 88 87 88 87 85 85 86 87 90 90 90 87 85 85 84 84 87 86 85 83 83 83 83 83 87 92 99 104 106 106 105 102 107
158 128 104 96 91 94 94 92 93 92 89 88 90 89 89 88 87 89 91 91 91 90 87 85 86 86 86 86 84 82 81 84 83 81 81 83 94 103 106 106 107 109 112
133 125 110 101 97 96 97 96 95 95 93 91 91 90 91 90 88 89 90 91 92 92 90 88 87 85 84 85 84 81 80 83 82 83 78 79 89 95 99 101 104 108 112
131 127 115 108 101 100 99 96 96 96 97 95 94 95 95 93 90 90 91 91 93 92 90 90 87 87 85 83 81 78 78 80 80 81 76 79 88 91 93 92 97 104 109
125 127 120 114 108 104 103 101 99 99 101 100 97 97 96 96 94 91 91 91 92 92 92 91 87 87 87 83 79 77 79 80 79 78 78 83 85 93 92 91 94 102 106
128 131 125 120 114 110 109 107 104 103 105 104 100 98 97 96 93 91 90 90 91 93 92 93 91 88 87 83 78 80 81 83 81 81 79 85 89 94 92 90 90 101 108
134 134 133 126 120 117 115 113 111 108 107 106 103 101 99 97 94 91 92 93 91 92 93 92 91 91 89 84 80 81 83 83 85 84 82 90 91 91 91 90 90 96 103
138 136 134 130 128 124 120 121 119 115 112 109 106 102 99 97 96 95 97 96 94 93 95 94 91 93 92 87 84 84 83 83 84 87 86 91 93 90 89 88 88 91 97
132 126 125 131 130 128 122 125 126 119 114 110 107 105 99 96 95 96 97 96 93 90 90 94 95 93 90 88 86 85 83 79 82 85 88 89 93 92 90 88 87 87 89
133 133 128 126 123 118 116 122 125 119 115 111 105 105 102 98 96 96 97 95 93 89 85 88 92 90 88 89 87 84 82 77 75 76 85 94 95 94 92 89 88 86 85
138 140 141 135 130 122 119 119 122 119 114 108 105 107 102 93 95 94 94 91 90 87 87 87 83 84 85 82 82 81 79 80 81 81 88 96 97 95 93 91 89 87 87
154 159 152 153 155 142 126 115 114 115 111 106 108 103 102 101 102 99 91 86 82 81 83 83 80 80 80 76 77 79 79 80 82 83 91 98 100 97 94 93 90 87 85
161 160 160 160 153 141 124 123 111 113 111 105 113 117 112 102 94 85 76 64 60 64 66 69 70 76 87 92 87 83 87 84 80 80 88 97 99 96 94 92 89 86 84
152 160 161 155 145 144 129 124 126 120 114 111 120 128 121 114 99 88 74 63 61 64 63 62 73 79 86 90 90 88 90 88 85 81 87 94 98 96 94 92 90 88 85
152 158 160 155 150 144 126 128 122 127 133 132 128 137 132 125 118 112 94 76 71 73 73 69 73 82 86 91 94 95 95 96 95 91 87 92 96 98 97 94 93 91 89
154 154 156 151 148 137 132 126 130 124 125 121 124 131 134 130 126 118 96 78 76 82 87 87 87 89 85 87 86 90 95 97 100 100 94 88 91 97 97 95 93 91 88
155 148 148 148 139 138 138 138 127 118 116 113 119 121 128 131 127 121 109 96 93 98 92 87 79 80 77 74 71 74 85 86 98 105 105 97 90 93 101 98 94 92 90
150 141 146 146 140 143 140 134 120 115 111 109 111 112 119 130 133 123 114 113 116 100 90 88 76 79 74 74 71 66 76 84 90 101 103 105 101 95 96 100 96 91 89
154 144 143 140 146 145 138 125 113 110 108 110 108 109 115 125 127 123 120 120 115 96 82 97 88 100 99 83 81 66 62 73 80 96 95 113 120 113 107 101 100 94 88
149 144 143 138 140 136 126 113 98 90 91 94 105 116 118 126 126 119 118 116 112 101 87 90 93 84 101 104 89 58 38 44 61 77 92 105 114 116 116 107 92 86 85
143 138 143 143 148 142 140 137 134 147 151 133 133 132 125 132 134 122 117 119 117 124 130 122 110 94 73 86 80 45 18 27 41 48 63 84 91 108 110 107 97 84 74
157 154 148 157 162 162 163 167 164 159 168 176 142 130 139 139 145 138 134 144 141 127 119 123 117 111 97 93 109 94 34 3 2 21 36 78 84 96 97 105 102 94 86
160 166 166 167 164 168 159 134 112 84 67 64 117 197 191 154 155 149 147 148 152 145 155 160 144 135 143 98 113 133 137 198 302 342 9 39 59 73 72 103 109 108 107
179 178 169 169 165 163 150 148 152 157 174 205 201 198 200 164 156 158 155 156 160 160 165 177 163 152 143 160 244 103 153 152 150 319 337 355 21 70 98 109 119 121 123
176 172 167 160 162 166 164 165 164 171 192 188 172 180 194 200 171 161 161 160 168 171 175 173 155 155 158 166 174 163 122 96 118 147 221 310 349 340 321 163 142 153 152
156 152 155 158 167 174 173 168 171 180 182 169 179 188 200 203 203 183 164 164 173 176 182 184 176 170 175 173 178 171 161 159 176 157 176 220 268 300 324 314 158 174 179
Height
1527 1526 1525 1524 1523 1522 1522 1522 1521 1521 1520 1520 1519 1519 1519 1519 1519 1519 1519 1518 1519 1518 1519 1519 1518 1518 1518 1518 1518 1518 1518 1518 1517 1517 1517 1518 1519 1519 1520 1521 1521 1522 1523
1527 1526 1525 1524 1524 1523 1523 1522 1522 1522 1521 1521 1521 1521 1520 1520 1520 1520 1520 1520 1520 1520 1520 1520 1520 1520 1520 1520 1520 1520 1520 1520 1519 1519 1519 1520 1520 1521 1522 1522 1523 1523 1524
1527 1526 1526 1525 1524 1524 1523 1523 1523 1523 1522 1522 1522 1522 1522 1522 1521 1522 1522 1522 1521 1521 1521 1522 1522 1522 1522 1522 1522 1522 1522 1521 1521 1521 1521 1521 1522 1523 1523 1524 1524 1525 1525
1527 1527 1526 1526 1525 1525 1524 1524 1523 1523 1523 1523 1523 1523 1523 1523 1523 1523 1523 1523 1523 1523 1523 1523 1523 1524 1524 1524 1524 1524 1524 1523 1523 1523 1523 1523 1523 1524 1524 1525 1525 1525 1526
1528 1528 1527 1526 1526 1525 1525 1524 1524 1524 1524 1524 1524 1524 1524 1524 1524 1524 1524 1524 1524 1524 1524 1524 1525 1525 1525 1525 1525 1525 1525 1525 1525 1525 1525 1525 1525 1525 1526 1526 1526 1526 1526
1528 1528 1528 1527 1526 1526 1525 1525 1525 1525 1525 1526 1525 1525 1525 1526 1525 1525 1525 1525 1525 1525 1526 1526 1526 1526 1527 1527 1527 1527 1527 1527 1527 1527 1527 1527 1527 1527 1527 1527 1527 1527 1527
1529 1529 1528 1528 1527 1526 1526 1525 1526 1526 1526 1527 1527 1527 1527 1527 1527 1527 1527 1527 1527 1527 1527 1527 1528 1528 1528 1528 1528 1528 1528 1528 1528 1528 1528 1528 1528 1528 1528 1528 1528 1528 1528
1530 1529 1529 1529 1528 1527 1525 1525 1525 1527 1527 1528 1528 1528 1528 1528 1528 1528 1529 1529 1529 1529 1529 1529 1529 1529 1529 1530 1530 1530 1530 1530 1530 1530 1530 1530 1530 1530 1529 1529 1529 1529 1529
1531 1530 1530 1529 1528 1526 1523 1522 1524 1527 1528 1529 1529 1530 1530 1530 1530 1530 1530 1530 1530 1530 1530 1530 1531 1531 1531 1531 1531 1531 1531 1531 1531 1531 1531 1531 1531 1531 1531 1530 1530 1530 1529
1532 1532 1531 1530 1529 1527 1524 1523 1525 1528 1530 1531 1531 1531 1531 1532 1532 1532 1532 1532 1532 1532 1532 1532 1532 1532 1532 1532 1532 1533 1533 1533 1533 1533 1533 1533 1532 1532 1532 1531 1531 1531 1531
1533 1533 1532 1531 1531 1529 1528 1527 1529 1530 1532 1532 1533 1533 1533 1533 1533 1533 1533 1533 1533 1533 1533 1533 1533 1533 1534 1534 1534 1534 1534 1534 1534 1534 1534 1534 1534 1533 1533 1533 1532 1532 1532
1533 1533 1533 1533 1532 1532 1531 1531 1532 1533 1533 1534 1534 1534 1534 1535 1535 1535 1535 1535 1535 1534 1534 1534 1534 1534 1535 1535 1535 1535 1535 1535 1535 1535 1535 1535 1535 1535 1534 1534 1533 1533 1533
1533 1533 1534 1534 1534 1533 1533 1533 1534 1534 1535 1535 1535 1536 1536 1536 1536 1536 1536 1536 1536 1536 1535 1535 1535 1536 1536 1536 1537 1537 1537 1537 1537 1537 1537 1537 1536 1536 1535 1535 1535 1534 1534
1533 1534 1534 1535 1535 1535 1535 1535 1535 1536 1536 1536 1536 1537 1537 1537 1537 1537 1537 1537 1537 1537 1536 1536 1536 1537 1537 1537 1538 1538 1538 1538 1538 1538 1538 1538 1538 1537 1537 1536 1536 1536 1535
1533 1534 1534 1535 1535 1536 1536 1536 1536 1537 1537 1537 1537 1537 1538 1538 1538 1538 1538 1538 1538 1538 1537 1537 1537 1538 1538 1538 1539 1539 1539 1539 1539 1539 1539 1539 1539 1538 1538 1538 1537 1537 1537
1533 1533 1534 1535 1536 1536 1537 1537 1537 1537 1537 1538 1538 1538 1538 1538 1539 1539 1538 1539 1538 1538 1538 1538 1539 1539 1539 1539 1539 1540 1540 1540 1540 1540 1540 1540 1540 1540 1539 1539 1539 1538 1538
1532 1533 1534 1535 1536 1537 1537 1537 1538 1538 1538 1538 1538 1538 1539 1539 1539 1539 1539 1539 1539 1539 1539 1539 1539 1539 1540 1540 1540 1540 1541 1541 1541 1541 1541 1541 1541 1541 1540 1540 1540 1539 1539
1532 1533 1534 1535 1536 1536 1537 1537 1538 1538 1538 1539 1539 1539 1539 1539 1540 1539 1539 1539 1539 1539 1539 1539 1539 1540 1540 1540 1540 1541 1541 1542 1542 1542 1542 1542 1542 1542 1541 1541 1541 1540 1540
1532 1533 1534 1534 1535 1536 1537 1537 1538 1538 1538 1539 1539 1539 1539 1539 1540 1540 1539 1540 1540 1540 1540 1540 1540 1540 1540 1540 1541 1541 1542 1542 1542 1542 1542 1542 1542 1542 1542 1542 1541 1541 1540
1531 1532 1533 1534 1535 1536 1536 1537 1538 1538 1538 1539 1539 1539 1539 1539 1539 1539 1539 1539 1539 1540 1540 1540 1540 1540 1540 1540 1541 1541 1542 1542 1542 1542 1543 1543 1543 1543 1542 1542 1542 1541 1541
1530 1531 1532 1533 1534 1535 1536 1536 1536 1537 1537 1538 1539 1539 1539 1539 1539 1539 1539 1539 1539 1539 1539 1540 1540 1540 1540 1540 1541 1541 1542 1542 1543 1543 1543 1543 1543 1543 1543 1542 1542 1542 1541
1528 1530 1531 1532 1533 1534 1535 1535 1536 1536 1537 1537 1538 1538 1538 1539 1538 1538 1538 1538 1539 1539 1539 1539 1539 1540 1540 1540 1541 1541 1542 1544 1543 1543 1543 1543 1543 1543 1543 1542 1542 1542 1541
1527 1529 1530 1531 1532 1533 1534 1534 1535 1535 1536 1536 1536 1537 1537 1537 1538 1538 1538 1538 1538 1538 1538 1538 1539 1539 1540 1540 1541 1541 1541 1542 1542 1543 1543 1543 1542 1542 1542 1542 1542 1542 1541
1525 1527 1528 1529 1530 1532 1532 1533 1533 1533 1534 1534 1535 1535 1536 1536 1536 1536 1536 1537 1537 1537 1538 1538 1538 1539 1539 1539 1540 1540 1541 1541 1542 1542 1543 1543 1542 1542 1542 1541 1541 1541 1541
1524 1525 1526 1527 1528 1530 1531 1531 1532 1532 1532 1533 1533 1534 1534 1534 1535 1535 1535 1535 1536 1536 1536 1537 1537 1538 1538 1538 1539 1539 1540 1540 1541 1541 1541 1542 1542 1542 1541 1541 1541 1541 1540
1522 1523 1524 1525 1526 1527 1528 1529 1529 1530 1530 1530 1531 1531 1532 1532 1533 1533 1533 1533 1534 1534 1535 1535 1536 1536 1537 1537 1537 1538 1538 1539 1539 1539 1539 1540 1540 1540 1540 1540 1540 1540 1540